Tacoma, WA

1:53 AM PDT on August 27, 2016 (GMT -0700)
McChord Air Force Base

Weather History for KTCM - August, 2012

Change the Weather History Date:

Thursday, August 2, 2012

  Actual Average Record
Temperature  
Mean Temperature 62 °F -  
Max Temperature 75 °F 75 °F 90 °F (2009)
Min Temperature 49 °F 52 °F 45 °F (1967)
Degree Days  
Heating Degree Days 4    
Growing Degree Days 12 (Base 50)    
Moisture  
Dew Point 53 °F    
Average Humidity 74    
Maximum Humidity 95    
Minimum Humidity 52    
Precipitation  
Precipitation 0.00 in - - ()
Sea Level Pressure  
Sea Level Pressure 30.18 in    
Wind  
Wind Speed 2 mph (West)    
Max Wind Speed 8 mph    
Max Gust Speed -    
Visibility 10 miles    
Events Rain    
Averages and records for this station are not official NWS values.
T = Trace of Precipitation, MM = Missing Value Source: NWS Daily Summary

Daily Weather History Graph

Daily Weather History Graph

Search for Another Location

Airport or City:

Trip Planner

Search our weather history database for the weather conditions in past years. The results will help you decide how hot, cold, wet, or windy it might be!

Date:

Astronomy

Aug. 02, 2012 Rise Set
Actual Time 5:50 AM PDT 8:40 PM PDT
Civil Twilight 5:15 AM PDT 9:15 PM PDT
Nautical Twilight 4:30 AM PDT 10:00 PM PDT
Astronomical Twilight 3:36 AM PDT 10:53 PM PDT
Moon 8:39 PM PDT (8/2) 6:41 AM PDT (8/2)
Length of Visible Light 16h 00m
Length of Day
14h 49m
Waxing Gibbous, 99% of the Moon is Illuminated
Aug 2
Waxing Gibbous
Aug 9
Last Quarter
Aug 17
New
Aug 24
First Quarter
Aug 31
Full

Hourly Weather History & Observations

Time (PDT) Temp. Dew Point Humidity Pressure Visibility Wind Dir Wind Speed Gust Speed Precip Events Conditions
12:58 AM 55.9 °F 50.5 °F 82% 30.20 in 10.0 mi Calm Calm - N/A   Clear
1:58 AM 55.0 °F 50.4 °F 84% 30.19 in 10.0 mi South 2.3 mph - N/A   Clear
2:58 AM 54.3 °F 49.8 °F 85% 30.19 in 10.0 mi SSE 1.2 mph - N/A   Partly Cloudy
3:58 AM 49.8 °F 48.4 °F 95% 30.19 in 10.0 mi SSE 2.3 mph - N/A   Clear
4:58 AM 50.5 °F 48.9 °F 94% 30.19 in 10.0 mi Calm Calm - N/A   Clear
5:33 AM 50.0 °F 48.2 °F 94% 30.19 in 10.0 mi Calm Calm - N/A   Mostly Cloudy
5:58 AM 50.9 °F 49.3 °F 94% 30.19 in 10.0 mi South 2.3 mph - N/A   Overcast
6:18 AM 51.8 °F 50.0 °F 94% 30.19 in 10.0 mi SSE 1.2 mph - N/A   Overcast
6:58 AM 53.8 °F 50.5 °F 89% 30.20 in 10.0 mi SW 3.5 mph - N/A   Overcast
7:28 AM 53.6 °F 50.0 °F 88% 30.20 in 10.0 mi SW 2.3 mph - N/A   Overcast
7:58 AM 55.0 °F 50.9 °F 86% 30.21 in 10.0 mi SW 3.5 mph - N/A   Overcast
8:58 AM 57.2 °F 51.8 °F 82% 30.22 in 10.0 mi WSW 3.5 mph - N/A   Overcast
9:58 AM 58.3 °F 51.6 °F 78% 30.22 in 10.0 mi NW 1.2 mph - N/A   Overcast
10:44 AM 60.8 °F 51.8 °F 72% 30.20 in 10.0 mi Variable 3.5 mph - N/A   Mostly Cloudy
10:54 AM 60.8 °F 51.8 °F 72% 30.20 in 10.0 mi West 3.5 mph - N/A   Mostly Cloudy
10:58 AM 60.4 °F 52.3 °F 75% 30.21 in 10.0 mi SSE 5.8 mph - N/A   Mostly Cloudy
11:58 AM 65.5 °F 53.2 °F 65% 30.21 in 10.0 mi Variable 2.3 mph - N/A   Mostly Cloudy
12:30 PM 66.2 °F 53.6 °F 64% 30.19 in 10.0 mi Calm Calm - N/A Rain Light Rain
12:39 PM 68.0 °F 53.6 °F 60% 30.18 in 10.0 mi Variable 4.6 mph - N/A   Partly Cloudy
12:58 PM 67.8 °F 54.0 °F 61% 30.19 in 10.0 mi Variable 4.6 mph - 0.00 in   Clear
1:58 PM 69.8 °F 54.7 °F 59% 30.19 in 10.0 mi North 4.6 mph - N/A   Overcast
2:58 PM 71.6 °F 55.0 °F 56% 30.18 in 10.0 mi North 1.2 mph - N/A   Clear
3:58 PM 74.1 °F 55.6 °F 52% 30.16 in 10.0 mi Variable 5.8 mph - N/A   Clear
4:58 PM 74.8 °F 56.1 °F 52% 30.15 in 10.0 mi NNE 5.8 mph - N/A   Overcast
5:58 PM 72.5 °F 56.1 °F 56% 30.14 in 10.0 mi North 8.1 mph - N/A   Partly Cloudy
6:58 PM 70.5 °F 55.8 °F 59% 30.13 in 10.0 mi North 3.5 mph - N/A   Clear
7:58 PM 70.9 °F 54.9 °F 57% 30.12 in 10.0 mi NNE 3.5 mph - N/A   Scattered Clouds
8:58 PM 67.1 °F 55.4 °F 66% 30.13 in 10.0 mi NNE 2.3 mph - N/A   Clear
9:58 PM 64.6 °F 55.6 °F 73% 30.13 in 10.0 mi Calm Calm - N/A   Clear
10:58 PM 64.4 °F 56.1 °F 74% 30.13 in 10.0 mi Variable 2.3 mph - N/A   Overcast
11:58 PM 62.2 °F 55.4 °F 78% 30.13 in 10.0 mi North 5.8 mph - N/A   Overcast